• în Republica Moldova
  • Lista ţărilor
  • Pe 7 zile
  • Temperatura apei
  • Hartă satelitară
  • Meteo pe hartă
  • Widget-uri
  • user-avatar
    Intrare

    Meteo pe oră la Algiers

    Astăzi, 23 Ianuarie, Marţi

    Timp Temperatura Precipitaţii Vânt Presiune Umiditate
    00:00 +14°C° 0 mm 4 m/s 755 mmHg 63%
    01:00 +13°C° 0 mm 4 m/s 755 mmHg 62%
    02:00 +13°C° 0 mm 3 m/s 755 mmHg 62%
    03:00 +13°C° 0 mm 3 m/s 755 mmHg 61%
    04:00 +13°C° 0 mm 3 m/s 755 mmHg 60%
    05:00 +12°C° 0 mm 3 m/s 755 mmHg 60%
    06:00 +13°C° 0 mm 2 m/s 755 mmHg 60%
    07:00 +14°C° 0 mm 2 m/s 756 mmHg 57%
    08:00 +16°C° 0 mm 2 m/s 756 mmHg 54%
    09:00 +17°C° 0 mm 2 m/s 756 mmHg 51%
    10:00 +18°C° 0 mm 2 m/s 756 mmHg 50%
    11:00 +19°C° 0 mm 2 m/s 756 mmHg 49%
    12:00 +20°C° 0 mm 2 m/s 756 mmHg 48%
    13:00 +20°C° 0 mm 2 m/s 756 mmHg 50%
    14:00 +20°C° 0 mm 2 m/s 756 mmHg 52%
    15:00 +20°C° 0 mm 2 m/s 756 mmHg 54%
    16:00 +19°C° 0 mm 1 m/s 756 mmHg 63%
    17:00 +16°C° 0 mm 1 m/s 756 mmHg 72%
    18:00 +14°C° 0 mm 1 m/s 756 mmHg 80%
    19:00 +14°C° 0 mm 1 m/s 757 mmHg 81%
    20:00 +14°C° 0 mm 1 m/s 757 mmHg 81%
    21:00 +13°C° 0 mm 1 m/s 757 mmHg 82%
    22:00 +13°C° 0 mm 1 m/s 757 mmHg 80%
    23:00 +13°C° 0 mm 1 m/s 757 mmHg 79%

    Mâine, 24 Ianuarie, Miercuri

    Timp Temperatura Precipitaţii Vânt Presiune Umiditate
    00:00 +13°C° 0 mm 1 m/s 757 mmHg 77%
    01:00 +13°C° 0 mm 1 m/s 757 mmHg 76%
    02:00 +13°C° 0 mm 1 m/s 757 mmHg 74%
    03:00 +13°C° 0 mm 1 m/s 757 mmHg 72%
    04:00 +12°C° 0 mm 1 m/s 757 mmHg 70%
    05:00 +12°C° 0 mm 1 m/s 757 mmHg 69%
    06:00 +12°C° 0 mm 1 m/s 757 mmHg 67%
    07:00 +14°C° 0 mm 1 m/s 757 mmHg 62%
    08:00 +15°C° 0 mm 1 m/s 757 mmHg 57%
    09:00 +18°C° 0 mm 1 m/s 757 mmHg 52%
    10:00 +19°C° 0 mm 1 m/s 757 mmHg 47%
    11:00 +20°C° 0 mm 1 m/s 757 mmHg 43%
    12:00 +22°C° 0 mm 1 m/s 757 mmHg 38%
    13:00 +22°C° 0 mm 1 m/s 756 mmHg 40%
    14:00 +21°C° 0 mm 2 m/s 756 mmHg 41%
    15:00 +21°C° 0 mm 2 m/s 756 mmHg 43%
    16:00 +19°C° 0 mm 2 m/s 756 mmHg 49%
    17:00 +17°C° 0 mm 2 m/s 756 mmHg 55%
    18:00 +15°C° 0 mm 2 m/s 756 mmHg 61%
    19:00 +15°C° 0 mm 2 m/s 756 mmHg 59%
    20:00 +15°C° 0 mm 2 m/s 756 mmHg 57%
    21:00 +15°C° 0 mm 2 m/s 756 mmHg 54%
    22:00 +15°C° 0 mm 2 m/s 756 mmHg 53%
    23:00 +14°C° 0 mm 2 m/s 756 mmHg 52%

    Poimâine, 25 Ianuarie, Joi

    Timp Temperatura Precipitaţii Vânt Presiune Umiditate
    00:00 +14°C° 0 mm 2 m/s 756 mmHg 51%
    01:00 +14°C° 0 mm 2 m/s 755 mmHg 51%
    02:00 +13°C° 0 mm 2 m/s 755 mmHg 50%
    03:00 +13°C° 0 mm 2 m/s 755 mmHg 49%
    04:00 +12°C° 0 mm 3 m/s 755 mmHg 50%
    05:00 +12°C° 0 mm 3 m/s 755 mmHg 51%
    06:00 +11°C° 0 mm 3 m/s 755 mmHg 51%
    07:00 +12°C° 0 mm 3 m/s 755 mmHg 52%
    08:00 +13°C° 0 mm 3 m/s 755 mmHg 52%
    09:00 +16°C° 0 mm 3 m/s 755 mmHg 52%
    10:00 +17°C° 0 mm 3 m/s 754 mmHg 47%
    11:00 +19°C° 0 mm 3 m/s 754 mmHg 42%
    12:00 +21°C° 0 mm 3 m/s 753 mmHg 38%
    13:00 +21°C° 0 mm 2 m/s 753 mmHg 37%
    14:00 +21°C° 0 mm 2 m/s 752 mmHg 37%
    15:00 +21°C° 0 mm 2 m/s 752 mmHg 36%
    16:00 +20°C° 0 mm 2 m/s 752 mmHg 41%
    17:00 +18°C° 0 mm 2 m/s 752 mmHg 46%
    18:00 +16°C° 0 mm 2 m/s 751 mmHg 50%
    19:00 +15°C° 0 mm 2 m/s 752 mmHg 51%
    20:00 +14°C° 0 mm 3 m/s 752 mmHg 53%
    21:00 +13°C° 0 mm 3 m/s 752 mmHg 54%
    22:00 +13°C° 0 mm 3 m/s 751 mmHg 55%
    23:00 +13°C° 0 mm 4 m/s 751 mmHg 57%

    26 Ianuarie, Vineri

    Timp Temperatura Precipitaţii Vânt Presiune Umiditate
    00:00 +13°C° 0 mm 4 m/s 751 mmHg 58%
    01:00 +12°C° 0 mm 4 m/s 751 mmHg 59%
    02:00 +12°C° 0 mm 5 m/s 750 mmHg 61%
    03:00 +12°C° 0 mm 5 m/s 750 mmHg 62%
    04:00 +10°C° 0 mm 5 m/s 750 mmHg 64%
    05:00 +10°C° 0 mm 5 m/s 750 mmHg 65%
    06:00 +10°C° 0 mm 5 m/s 750 mmHg 66%
    07:00 +10°C° 0,9 mm 6 m/s 750 mmHg 72%
    08:00 +10°C° 0,9 mm 6 m/s 751 mmHg 79%
    09:00 +10°C° 0,9 mm 6 m/s 751 mmHg 85%
    10:00 +11°C° 0,2 mm 6 m/s 751 mmHg 81%
    11:00 +11°C° 0,2 mm 6 m/s 751 mmHg 77%
    12:00 +11°C° 0,2 mm 6 m/s 752 mmHg 74%
    13:00 +11°C° 0,6 mm 7 m/s 752 mmHg 73%
    14:00 +11°C° 0,6 mm 7 m/s 752 mmHg 71%
    15:00 +10°C° 0,6 mm 7 m/s 752 mmHg 70%
    16:00 +9°C° 0,8 mm 7 m/s 752 mmHg 75%
    17:00 +8°C° 0,8 mm 6 m/s 752 mmHg 80%
    18:00 +7°C° 0,8 mm 6 m/s 753 mmHg 85%
    19:00 +7°C° 0,8 mm 6 m/s 753 mmHg 86%
    20:00 +7°C° 0,8 mm 5 m/s 753 mmHg 86%
    21:00 +7°C° 0,8 mm 5 m/s 754 mmHg 87%
    22:00 +7°C° 3,1 mm 6 m/s 753 mmHg 89%
    23:00 +5°C° 3,1 mm 7 m/s 753 mmHg 92%

    27 Ianuarie, Sâmbătă

    Timp Temperatura Precipitaţii Vânt Presiune Umiditate
    00:00 +5°C° 3,1 mm 7 m/s 753 mmHg 94%
    01:00 +6°C° 2,6 mm 7 m/s 753 mmHg 92%
    02:00 +6°C° 2,6 mm 7 m/s 753 mmHg 90%
    03:00 +6°C° 2,6 mm 8 m/s 752 mmHg 89%
    04:00 +6°C° 0,8 mm 7 m/s 752 mmHg 88%
    05:00 +6°C° 0,8 mm 7 m/s 752 mmHg 87%
    06:00 +7°C° 0,8 mm 6 m/s 753 mmHg 86%
    07:00 +7°C° 0,4 mm 6 m/s 753 mmHg 83%
    08:00 +8°C° 0,4 mm 6 m/s 753 mmHg 80%
    09:00 +8°C° 0,4 mm 6 m/s 754 mmHg 76%
    10:00 +9°C° 0,5 mm 6 m/s 754 mmHg 74%
    11:00 +9°C° 0,5 mm 6 m/s 754 mmHg 72%
    12:00 +9°C° 0,5 mm 5 m/s 753 mmHg 70%
    13:00 +9°C° 0,6 mm 5 m/s 753 mmHg 72%
    14:00 +9°C° 0,6 mm 5 m/s 753 mmHg 74%
    15:00 +9°C° 0,6 mm 5 m/s 752 mmHg 75%
    16:00 +8°C° 0,5 mm 5 m/s 752 mmHg 78%
    17:00 +7°C° 0,5 mm 5 m/s 753 mmHg 81%
    18:00 +7°C° 0,5 mm 5 m/s 753 mmHg 85%
    19:00 +7°C° 0,4 mm 4 m/s 753 mmHg 85%
    20:00 +7°C° 0,4 mm 4 m/s 753 mmHg 85%
    21:00 +7°C° 0,4 mm 4 m/s 753 mmHg 85%
    22:00 +6°C° 0,2 mm 4 m/s 753 mmHg 85%
    23:00 +6°C° 0,2 mm 5 m/s 753 mmHg 85%

    28 Ianuarie, Duminică

    Timp Temperatura Precipitaţii Vânt Presiune Umiditate
    00:00 +6°C° 0,2 mm 5 m/s 753 mmHg 86%
    01:00 +6°C° 0,4 mm 5 m/s 752 mmHg 85%
    02:00 +5°C° 0,4 mm 6 m/s 752 mmHg 85%
    03:00 +5°C° 0,4 mm 6 m/s 751 mmHg 84%
    04:00 +6°C° 1,1 mm 5 m/s 751 mmHg 84%
    05:00 +6°C° 1,1 mm 5 m/s 751 mmHg 84%
    06:00 +5°C° 1,1 mm 4 m/s 751 mmHg 84%
    07:00 +6°C° 1,2 mm 4 m/s 751 mmHg 84%
    08:00 +6°C° 1,2 mm 4 m/s 751 mmHg 85%
    09:00 +7°C° 1,2 mm 3 m/s 751 mmHg 86%
    10:00 +8°C° 0,1 mm 3 m/s 751 mmHg 85%
    11:00 +9°C° 0,1 mm 2 m/s 751 mmHg 85%
    12:00 +10°C° 0,1 mm 2 m/s 751 mmHg 84%
    13:00 +10°C° 0,7 mm 3 m/s 751 mmHg 81%
    14:00 +11°C° 0,7 mm 4 m/s 751 mmHg 78%
    15:00 +10°C° 0,7 mm 5 m/s 750 mmHg 75%
    16:00 +9°C° 0,7 mm 5 m/s 751 mmHg 78%
    17:00 +9°C° 0,7 mm 5 m/s 751 mmHg 80%
    18:00 +8°C° 0,7 mm 5 m/s 751 mmHg 83%
    19:00 +7°C° 0,1 mm 5 m/s 752 mmHg 83%
    20:00 +7°C° 0,1 mm 5 m/s 753 mmHg 83%
    21:00 +7°C° 0,1 mm 5 m/s 753 mmHg 83%
    22:00 +6°C° 0 mm 5 m/s 753 mmHg 83%
    23:00 +6°C° 0 mm 5 m/s 754 mmHg 83%
    Arată mai mult